GLOBALSTAR M031 [-]

Last updated on July 6, 2021, 3:36 p.m. UTC

1 25946U 99058D   21186.97602856 -.00000114  00000-0 -24350-3 0  9993
2 25946  51.9942 166.1842 0001187 132.3585 261.3729 12.15969678989101
UTC
Height (km)
Latitude
Longitude
Inclination
Orbital Period
UTC large
Height (km)
Speed (km/s)
/
Latitude / Longitude
Inclination (degrees)
Orbital Period (minutes)
Azimuth
Elevation
Range (km)
Doppler Factor
iOS Compass Heading
iOS Angle